Content
SEND FEEDBACK

Daily
Averages
Monthly
Summary
United States of America

NARBERTH, PENNSYLVANIA


Home > North America > United States > Pennsylvania
Elevation: 229 feet     Latitude: 40 02N     Longitude: 075 15W

WEATHER
 
SELECT A DAY
Number of Records: 278,542;   Date Range: 1/24/03 - 9/20/14
 
SHARE

PRINT THIS DATA

[ ← Previous Day ]
WEATHER ALMANAC - JANUARY 31, 2013
[ Next Day → ]
[ °C ]   °F
Weather ElementAverageHighLow
Temperature43.8 °F62.6 °F (1:55 am)30.2 °F (11:35 pm)
Dewpoint29.2 °F59 °F (12:55 am)12.2 °F (9:35 pm)
Humidity58.2 %94 % (12:35 am)39 % (1:15 pm)
Barometer29.50 in29.84 in (11:35 pm)29.09 in (2:55 am)
Wind Speed15 mph23 mph (7:55 am)
Wind Gust36.8 mph (1:55 am)
Weather ElementAverage
Visibility9.2 mi
Wind DirectionWSW (255.3 °)

Weather ElementTotal
Precipitation1.69 in
Heating Degree Days18.6 (Base 65)
Averaged from 66 records on January 31, 2013
WEATHER CONDITIONS BREAKOUT
WIND DIRECTION BREAKOUT
WEATHER BY HOUR - JANUARY 31, 2013
[ °C ]   °F
Local TimeTemperatureDewpointHumidityBarometerVisibilityWind DirectionWind SpeedGust SpeedPrecipitationEventsConditions
12:35 AM59.0 °F57.2 °F94 %29.26 in5.0 miSSE (160°)9.2 mph18.4 mph0.07 inOvercast
12:55 AM60.8 °F59.0 °F94 %29.20 in5.0 miSSE (160°)16.1 mph24.2 mph0.08 inOvercast
1:35 AM60.8 °F59.0 °F94 %29.14 in10.0 miSouth (180°)19.6 mph27.6 mphOvercast
1:55 AM62.6 °F59.0 °F88 %29.13 in7.0 miSouth (190°)20.7 mph36.8 mphOvercast
2:15 AM62.6 °F59.0 °F88 %29.12 in3.0 miSouth (180°)19.6 mph34.5 mph0.02 inOvercast
2:35 AM60.8 °F59.0 °F94 %29.10 in3.0 miSouth (180°)18.4 mph25.3 mph0.08 inOvercast
2:55 AM60.8 °F59.0 °F94 %29.09 in3.0 miSouth (180°)15.0 mph24.2 mph0.20 inOvercast
3:15 AM60.8 °F59.0 °F94 %29.17 in2.5 miSW (230°)12.7 mph31.1 mph0.30 inOvercast
3:35 AM60.8 °F57.2 °F88 %29.16 in4.0 miWSW (240°)10.4 mph16.1 mph0.35 inOvercast
3:55 AM59.0 °F55.4 °F88 %29.13 in5.0 miWSW (240°)13.8 mph21.9 mph0.41 inOvercast
4:35 AM59.0 °F53.6 °F82 %29.11 in10.0 miSSW (200°)9.2 mph0.02 inMostly Cloudy
5:15 AM59.0 °F55.4 °F88 %29.10 in10.0 miSW (230°)13.8 mph18.4 mphOvercast
5:35 AM53.6 °F48.2 °F82 %29.15 in10.0 miWest (270°)15.0 mph31.1 mph0.08 inOvercast
5:55 AM53.6 °F46.4 °F77 %29.19 in10.0 miWest (270°)21.9 mph33.4 mph0.08 inMostly Cloudy
6:15 AM51.8 °F41.0 °F67 %29.23 in10.0 miWest (270°)13.8 mph25.3 mphMostly Cloudy
6:35 AM50.0 °F35.6 °F58 %29.24 in10.0 miWest (270°)12.7 mph24.2 mphMostly Cloudy
6:55 AM48.2 °F32.0 °F54 %29.27 in10.0 miWest (260°)15.0 mph32.2 mphMostly Cloudy
7:15 AM48.2 °F32.0 °F54 %29.29 in10.0 miWest (260°)15.0 mph23.0 mphOvercast
7:35 AM46.4 °F32.0 °F57 %29.32 in10.0 miWest (280°)16.1 mph33.4 mphOvercast
7:55 AM44.6 °F32.0 °F61 %29.35 in10.0 miWest (280°)23.0 mph33.4 mphMostly Cloudy
8:15 AM44.6 °F30.2 °F57 %29.38 in10.0 miWest (270°)19.6 mph28.8 mphMostly Cloudy
8:35 AM44.6 °F28.4 °F53 %29.40 in10.0 miWest (270°)19.6 mph31.1 mphOvercast
8:55 AM42.8 °F28.4 °F57 %29.42 in10.0 miWest (280°)18.4 mph26.5 mphOvercast
9:15 AM42.8 °F28.4 °F57 %29.43 in10.0 miWest (280°)16.1 mph32.2 mphMostly Cloudy
9:35 AM42.8 °F26.6 °F53 %29.44 in10.0 miWNW (290°)16.1 mph28.8 mphMostly Cloudy
9:55 AM42.8 °F26.6 °F53 %29.45 in10.0 miWNW (290°)17.3 mph31.1 mphMostly Cloudy
10:15 AM42.8 °F28.4 °F57 %29.48 in10.0 miWest (280°)13.8 mph29.9 mphMostly Cloudy
10:35 AM42.8 °F28.4 °F57 %29.49 in10.0 miWest (280°)17.3 mph26.5 mphMostly Cloudy
10:55 AM42.8 °F26.6 °F53 %29.50 in10.0 miWest (270°)18.4 mph32.2 mphScattered Clouds
11:15 AM42.8 °F24.8 °F49 %29.50 in10.0 miWNW (290°)15.0 mph27.6 mphMostly Cloudy
11:35 AM42.8 °F26.6 °F53 %29.51 in10.0 miWest (280°)15.0 mph23.0 mphOvercast
11:55 AM42.8 °F26.6 °F53 %29.52 in10.0 miWNW (290°)11.5 mph24.2 mphOvercast
12:15 PM42.8 °F26.6 °F53 %29.52 in10.0 miWest (270°)13.8 mph28.8 mphMostly Cloudy
12:35 PM42.8 °F24.8 °F49 %29.51 in10.0 miWest (270°)17.3 mph28.8 mphMostly Cloudy
12:55 PM44.6 °F23.0 °F43 %29.52 in10.0 miWest (270°)13.8 mph29.9 mphScattered Clouds
1:15 PM44.6 °F21.2 °F39 %29.53 in10.0 miWest (260°)20.7 mph29.9 mphScattered Clouds
1:35 PM42.8 °F21.2 °F42 %29.54 in10.0 miWest (260°)16.1 mph32.2 mphScattered Clouds
1:55 PM42.8 °F21.2 °F42 %29.55 in10.0 miWest (260°)15.0 mph26.5 mphScattered Clouds
2:15 PM42.8 °F21.2 °F42 %29.56 in10.0 miWest (270°)19.6 mph33.4 mphScattered Clouds
2:35 PM41.0 °F21.2 °F45 %29.57 in10.0 miWSW (250°)20.7 mph29.9 mphScattered Clouds
2:55 PM41.0 °F21.2 °F45 %29.58 in10.0 miWSW (250°)21.9 mph32.2 mphScattered Clouds
3:15 PM41.0 °F17.6 °F39 %29.60 in10.0 miWest (260°)20.7 mph29.9 mphScattered Clouds
3:35 PM41.0 °F19.4 °F42 %29.62 in10.0 miWest (270°)23.0 mph31.1 mphScattered Clouds
3:55 PM37.4 °F17.6 °F45 %29.65 in10.0 miWest (280°)17.3 mph33.4 mphScattered Clouds
4:15 PM37.4 °F19.4 °F48 %29.66 in10.0 miWest (260°)11.5 mph27.6 mphScattered Clouds
4:35 PM37.4 °F17.6 °F45 %29.67 in10.0 miWest (260°)10.4 mph20.7 mphMostly Cloudy
4:55 PM35.6 °F14.0 °F41 %29.68 in10.0 miWest (270°)17.3 mph26.5 mphMostly Cloudy
5:15 PM35.6 °F15.8 °F44 %29.69 in10.0 miWest (270°)16.1 mph23.0 mphScattered Clouds
5:35 PM35.6 °F17.6 °F48 %29.71 in10.0 miWSW (250°)15.0 mph24.2 mphScattered Clouds
5:55 PM35.6 °F17.6 °F48 %29.72 in10.0 miWest (270°)9.2 mph23.0 mphScattered Clouds
6:15 PM35.6 °F19.4 °F52 %29.73 in10.0 miWest (270°)11.5 mph25.3 mphScattered Clouds
6:35 PM35.6 °F19.4 °F52 %29.74 in10.0 miWest (270°)9.2 mph16.1 mphMostly Cloudy
6:55 PM35.6 °F19.4 °F52 %29.75 in10.0 miWSW (250°)16.1 mph29.9 mphMostly Cloudy
7:15 PM33.8 °F17.6 °F52 %29.76 in10.0 miWest (270°)15.0 mph29.9 mphMostly Cloudy
7:35 PM33.8 °F17.6 °F52 %29.77 in10.0 miWest (280°)17.3 mph27.6 mphScattered Clouds
8:15 PM33.8 °F17.6 °F52 %29.78 in10.0 miWest (270°)15.0 mph26.5 mphScattered Clouds
8:35 PM32.0 °F19.4 °F60 %29.80 in10.0 miWNW (290°)12.7 mph21.9 mphMostly Cloudy
9:15 PM32.0 °F17.6 °F55 %29.82 in10.0 miWest (270°)12.7 mph24.2 mphMostly Cloudy
9:35 PM32.0 °F12.2 °F44 %29.82 in10.0 miWest (270°)11.5 mph23.0 mphScattered Clouds
9:55 PM32.0 °F12.2 °F44 %29.83 in10.0 miWest (270°)10.4 mph18.4 mphClear
10:15 PM32.0 °F12.2 °F44 %29.83 in10.0 miWest (270°)10.4 mph16.1 mphClear
10:35 PM32.0 °F12.2 °F44 %29.83 in10.0 miWSW (250°)8.1 mph18.4 mphClear
10:55 PM32.0 °F12.2 °F44 %29.83 in10.0 miWSW (250°)12.7 mph19.6 mphClear
11:15 PM32.0 °F12.2 °F44 %29.83 in10.0 miWSW (250°)6.9 mphClear
11:35 PM30.2 °F14.0 °F51 %29.84 in10.0 miWSW (240°)6.9 mphClear
11:55 PM32.0 °F14.0 °F48 %29.84 in10.0 miSW (230°)8.1 mphScattered Clouds
Hourly data recorded from KLOM, located miles away from Narberth, Pennsylvania







STORIES FROM OUR PARTNERS